Location: *
(42.1667°S, 167.2833°W)
Time: 12:49:25
(UTC+00:00)

Daily predictions for brighter satellites

Satellite Brightness Start Highest point End
(mag) Time Altitude Azimuth Time Altitude Azimuth Time Altitude Azimuth
NOSS 3-1 (C) 4.3 15:18:59 42° E 15:18:59 42° E 15:22:55 10° NE
Cosmos 2227 Rocket 4.4 15:24:40 15° NNE 15:24:40 15° NNE 15:25:32 10° NNE
USA 267 3.9 15:19:32 10° ESE 15:25:56 50° NE 15:27:13 44° NNE
Atlas Centaur 2 3.9 15:27:05 36° N 15:27:30 36° N 15:34:45 10° ENE
CZ-4C R/B 4.4 15:35:02 20° S 15:35:02 20° S 15:37:33 10° SSE
Cosmos 1980 Rocket 3.0 15:32:43 45° NE 15:33:27 47° ENE 15:38:51 10° SE
Cosmos 1763 Rocket 4.4 15:35:43 48° E 15:35:43 48° E 15:40:44 10° SSE
USA 229 DEB 3.8 15:35:51 60° SSE 15:36:31 64° SE 15:42:58 10° NE
USA 229 3.9 15:35:56 60° SSE 15:36:39 63° SE 15:43:05 10° NE
Okean O Rocket 3.4 15:32:48 10° NE 15:36:40 29° ESE 15:37:18 28° SE
Cosmos 1898 Rocket 4.1 15:45:46 54° SE 15:46:08 55° ESE 15:51:23 10° NE
NOSS 3-1 (A) 3.9 15:47:30 47° SSE 15:48:35 54° SE 15:53:59 10° NE
Cosmos 2278 3.6 15:56:07 84° NE 15:56:14 85° ENE 16:01:59 10° SSE
USA 234 4.2 15:54:17 10° E 16:00:19 40° SSE 16:02:51 29° SSW
Cosmos 1697 Rocket 3.6 16:02:54 35° S 16:02:54 35° S 16:06:19 10° SSE
SMAP 4.3 15:59:02 10° NE 16:03:24 40° ESE 16:07:02 14° S
Cosmos 1092 Rocket 3.9 15:57:36 10° N 16:03:50 88° W 16:10:07 10° S
BREEZE-M DEB (TANK) 4.1 16:06:47 21° NE 16:06:47 21° NE 16:07:54 10° NE
CZ-4B R/B 3.4 16:02:42 10° NNE 16:08:14 71° ESE 16:12:45 17° S
Radarsat Rocket 4.3 16:05:56 10° NNE 16:13:20 85° ESE 16:19:54 10° SSW
Lacrosse 5 rocket 3.9 16:16:13 11° SSE 16:16:13 11° SSE 16:16:31 10° SSE
Cosmos 1953 3.1 16:14:22 36° SSE 16:15:40 51° E 16:19:35 10° NNE
Cosmos 1937 Rocket 3.6 16:15:37 38° S 16:17:38 74° ESE 16:22:49 10° NNE
Cosmos 1025 Rocket 4.3 16:23:12 28° S 16:23:12 28° S 16:25:20 10° S
YAOGAN 6 3.7 16:17:58 10° NE 16:21:23 42° ESE 16:22:43 29° SSE
Cosmos 1241 Rocket 4.5 16:20:33 41° WNW 16:22:52 67° SW 16:29:23 10° SSE
Meteor 2-13 Rocket 4.3 16:18:36 10° N 16:24:45 80° W 16:31:01 10° S
ADEOS Rocket 4.1 16:20:36 10° SSE 16:25:49 40° E 16:31:09 10° NNE
SJ 16-02 2.8 16:30:57 25° NNW 16:30:57 25° NNW 16:33:01 10° N
NOAA 6 4.0 16:24:48 10° N 16:29:52 57° W 16:30:46 50° WSW
AQUARIUS 4.5 16:27:15 10° NNE 16:31:44 68° ESE 16:35:53 12° S
OAO 2 Rocket 4.3 16:31:56 30° NW 16:33:32 37° N 16:38:11 10° ENE
Cosmos 2360 4.5 16:33:53 43° WSW 16:33:59 43° WSW 16:39:29 10° SSE
Cosmos 2322 Rocket 3.7 16:33:06 10° N 16:38:21 39° ENE 16:43:38 10° SE
Meteor 1-16 Rocket 4.4 16:32:27 10° S 16:38:21 77° E 16:43:58 10° NNE
ATLAS CENTAUR R/B 4.3 16:36:29 10° S 16:38:37 13° SSE 16:40:45 10° ESE
Cosmos 1340 Rocket 4.0 16:42:40 29° NW 16:42:40 29° NW 16:44:59 10° NNW
Cosmos 1536 Rocket 3.5 16:37:43 10° NNW 16:42:01 58° W 16:46:23 10° S
Cosmos 1726 2.0 16:43:50 61° WSW 16:44:10 65° W 16:47:53 10° N
Cosmos 1428 Rocket 4.5 16:38:10 10° NNW 16:44:25 64° W 16:50:47 10° S
H-2A R/B 3.9 16:43:09 10° NNW 16:45:35 30° NW 16:45:35 30° NW
Cosmos 1674 2.9 16:44:55 10° N 16:48:40 71° E 16:52:29 10° SSE
NOSS 2-3 (E) 4.3 16:48:22 27° SW 16:51:49 58° WNW 16:56:54 10° NNE
Helios 1A Rocket 3.4 16:48:31 10° NNE 16:52:34 63° ESE 16:56:42 10° S
Cosmos 2263 Rocket 2.3 16:49:22 13° SSW 16:54:33 83° ESE 17:00:16 10° NNE
Cosmos 1553 Rocket 4.0 16:48:28 10° S 16:54:59 84° W 17:01:20 10° N
Envisat 3.0 16:50:25 10° N 16:55:28 61° W 17:00:35 10° SSW
NOAA 12 4.0 16:52:28 10° N 16:57:44 77° WNW 17:03:04 10° SSW
Cosmos 1606 Rocket 4.2 16:55:39 10° S 16:59:58 55° E 17:04:15 10° NNE
In-Cosmos 22 4.2 16:57:00 10° NNW 17:02:26 57° WSW 17:07:48 10° S
Cosmos 1461 2.9 17:03:00 34° WSW 17:04:20 51° WNW 17:08:04 10° NNE
NOSS 3-1 (C) 4.3 17:06:25 23° W 17:07:48 25° WNW 17:12:09 10° NNW
ATLAS 5 CENTAUR R/B 3.1 17:00:50 10° NNW 17:08:01 69° ENE 17:14:42 10° SE
Cosmos 1437 2.4 17:05:11 10° NNW 17:08:11 66° W 17:11:15 10° S
S3M 4.0 17:02:02 10° S 17:08:16 90° NW 17:14:25 10° N
USA 267 3.4 17:02:32 10° SE 17:08:56 54° SSW 17:14:36 13° WNW
Cosmos 2360 Rocket 3.9 17:04:20 10° N 17:09:27 36° ENE 17:14:36 10° SE
Cosmos 2208 Rocket 4.1 17:04:24 10° NW 17:09:30 54° WSW 17:14:39 10° S
Cosmos 2285 Rocket 4.1 17:03:57 10° SSW 17:10:30 89° WNW 17:16:58 10° NNE
Cosmos 1814 Rocket 4.1 17:06:35 10° NW 17:11:47 56° WSW 17:17:06 10° SSE
Okean O Rocket 2.5 17:09:05 10° NNW 17:12:57 28° W 17:14:45 21° WSW
H-2A R/B 4.5 17:10:32 10° ENE 17:13:53 18° ESE 17:17:17 10° SSE
Atlas Centaur 2 4.2 17:09:41 11° WNW 17:16:27 31° NNW 17:22:56 10° NE
Cosmos 1980 Rocket 3.1 17:14:37 18° W 17:17:39 27° SW 17:22:27 10° S
CORIOLIS 4.4 17:12:43 10° N 17:17:58 50° W 17:23:18 10° SSW
ARGOS Delta rocket 3.9 17:15:41 10° N 17:20:38 59° W 17:25:24 10° SSW
SKYMED 2 3.6 17:16:42 10° SSE 17:21:09 85° ENE 17:25:32 10° NNW
Okean 1-7 Rocket 4.2 17:22:12 10° N 17:26:35 60° E 17:31:04 10° SSE
Cosmos 1726 Rocket 3.5 17:22:50 10° S 17:27:15 88° E 17:31:37 10° N
CREW DRAGON DEMO-1 DEB 3.6 17:26:20 10° NW 17:29:23 54° NE 17:32:29 10° ESE
Feng Yun 1-1 Rocket 4.4 17:25:12 10° N 17:30:33 55° W 17:36:07 10° SSW
Cosmos 1844 Rocket 4.1 17:25:54 10° S 17:31:12 37° ESE 17:36:27 10° NE
KORONAS-FOTON 4.5 17:31:28 10° NW 17:34:56 32° WSW 17:38:27 10° SSW
PSLV R/B 4.3 17:32:18 10° S 17:36:17 43° WSW 17:40:16 10° NW
Cosmos 1939 Rocket 2.9 17:34:40 10° NNE 17:38:43 85° WNW 17:42:56 10° SSW
NOSS 3-1 (A) 4.3 17:34:58 13° WSW 17:38:52 25° WNW 17:43:11 10° NNW
Aureole 3 Rocket 4.4 17:36:45 13° SW 17:38:57 20° W 17:42:23 10° NW
Cosmos 540 Rocket 4.3 17:36:06 10° WNW 17:40:32 28° WSW 17:45:01 10° S
SMAP 4.3 17:37:17 10° NW 17:40:52 22° W 17:44:31 10° SW
CZ-4 R/B 1.5 17:37:45 10° NNE 17:41:58 88° ESE 17:46:17 10° SSW
SL-16 R/B 2.3 17:36:34 10° NW 17:42:08 54° WSW 17:47:46 10° SSE
USA 234 3.3 17:36:23 10° NE 17:42:59 79° NW 17:49:38 10° SW
Cosmos 1689 Rocket 3.8 17:41:44 10° SSW 17:43:34 15° WSW 17:45:25 10° WNW
Cosmos 1626 2.1 17:41:08 10° NNW 17:44:51 61° W 17:48:37 10° S
Okean-O 2.7 17:43:11 10° N 17:47:36 62° W 17:52:05 10° SSW
Cosmos 2228 3.5 17:46:40 10° SSW 17:50:41 38° W 17:54:39 10° NNW
SL-14 R/B 3.3 17:47:11 10° NNW 17:51:04 57° W 17:54:59 10° S
Cosmos 2333 Rocket 4.4 17:46:14 10° NNE 17:51:10 31° ENE 17:56:08 10° SE
Cosmos 1953 4.2 17:50:07 10° WSW 17:51:31 12° W 17:53:00 10° WNW
Orbus 7S? 4.2 17:50:09 10° W 17:53:18 40° SSW 17:59:27 10° SE
CZ-2D R/B 3.3 17:49:51 10° N 17:53:44 68° W 17:57:42 10° SSW
Cosmos 2098 Rocket 4.0 17:50:20 10° NNW 17:55:47 59° WSW 18:02:33 10° S
Cosmos 2150 Rocket 4.5 17:53:23 10° SSW 17:58:31 44° WNW 18:03:32 10° N
Cosmos 1125 Rocket 3.5 17:53:52 10° SSW 17:59:10 69° WNW 18:04:22 10° N
ATLAS 2AS CENTAUR R/B 4.5 17:54:59 10° SSW 17:59:43 20° SSE 18:04:42 10° ESE
Cosmos 1300 2.8 17:58:40 10° SSW 18:02:30 58° W 18:06:17 10° N
SL-24 R/B 4.2 18:00:22 10° N 18:04:41 68° W 18:09:11 10° SSW
ASTEX 1 4.5 18:02:22 10° NW 18:06:21 24° W 18:10:22 10° SSW
Meteor 1-24 Rocket 3.8 18:01:17 10° NNW 18:06:31 50° WSW 18:11:45 10° S
